• In Russia
  • List of Countries
  • For 7 days
  • Water Temperature
  • Weather Map
  • Weather Widgets
  • user-avatar
    Login

    Hourly Weather Tibissa

    Today, 27 February, Thursday

    Time Temperature Precipitation Wind Pressure Humidity
    00:00 +8°C° 0 mm 3 mps 685 mmHg 88%
    01:00 +7°C° 0 mm 4 mps 685 mmHg 93%
    02:00 +6°C° 0 mm 4 mps 685 mmHg 92%
    03:00 +6°C° 0 mm 4 mps 685 mmHg 92%
    04:00 +5°C° 0 mm 4 mps 684 mmHg 91%
    05:00 +5°C° 0 mm 4 mps 685 mmHg 89%
    06:00 +5°C° 0 mm 4 mps 685 mmHg 87%
    07:00 +3°C° 0 mm 5 mps 685 mmHg 86%
    08:00 +6°C° 0 mm 5 mps 686 mmHg 76%
    09:00 +7°C° 0 mm 5 mps 687 mmHg 66%
    10:00 +8°C° 0 mm 5 mps 687 mmHg 57%
    11:00 +10°C° 0 mm 5 mps 687 mmHg 48%
    12:00 +12°C° 0 mm 5 mps 687 mmHg 40%
    13:00 +13°C° 0 mm 5 mps 688 mmHg 32%
    14:00 +14°C° 0 mm 5 mps 687 mmHg 31%
    15:00 +14°C° 0 mm 5 mps 687 mmHg 29%
    16:00 +15°C° 0 mm 5 mps 687 mmHg 27%
    17:00 +14°C° 0 mm 4 mps 687 mmHg 33%
    18:00 +13°C° 0 mm 3 mps 687 mmHg 38%
    19:00 +12°C° 0 mm 2 mps 687 mmHg 43%
    20:00 +12°C° 0 mm 2 mps 687 mmHg 49%
    21:00 +10°C° 0 mm 2 mps 687 mmHg 54%
    22:00 +10°C° 0 mm 1 mps 687 mmHg 60%
    23:00 +9°C° 0 mm 2 mps 687 mmHg 60%

    Tomorrow, 28 February, Friday

    Time Temperature Precipitation Wind Pressure Humidity
    00:00 +9°C° 0 mm 2 mps 687 mmHg 61%
    01:00 +8°C° 0 mm 2 mps 687 mmHg 62%
    02:00 +8°C° 0 mm 2 mps 687 mmHg 62%
    03:00 +8°C° 0 mm 2 mps 687 mmHg 62%
    04:00 +8°C° 0 mm 2 mps 686 mmHg 61%
    05:00 +7°C° 0 mm 2 mps 686 mmHg 62%
    06:00 +7°C° 0 mm 2 mps 687 mmHg 62%
    07:00 +7°C° 0 mm 2 mps 687 mmHg 62%
    08:00 +9°C° 0 mm 3 mps 687 mmHg 53%
    09:00 +11°C° 0 mm 3 mps 688 mmHg 44%
    10:00 +13°C° 0 mm 4 mps 689 mmHg 35%
    11:00 +14°C° 0 mm 4 mps 689 mmHg 34%
    12:00 +15°C° 0 mm 5 mps 689 mmHg 32%
    13:00 +17°C° 0 mm 5 mps 689 mmHg 31%
    14:00 +17°C° 0 mm 5 mps 689 mmHg 30%
    15:00 +17°C° 0 mm 5 mps 688 mmHg 30%
    16:00 +17°C° 0 mm 5 mps 688 mmHg 29%
    17:00 +17°C° 0 mm 4 mps 688 mmHg 35%
    18:00 +14°C° 0 mm 3 mps 688 mmHg 41%
    19:00 +14°C° 0 mm 2 mps 687 mmHg 47%
    20:00 +13°C° 0 mm 1 mps 688 mmHg 50%
    21:00 +12°C° 0 mm 1 mps 688 mmHg 52%
    22:00 +12°C° 0 mm 1 mps 688 mmHg 55%
    23:00 +11°C° 0 mm 1 mps 687 mmHg 54%

    Day after tomorrow, 29 February, Saturday

    Time Temperature Precipitation Wind Pressure Humidity
    00:00 +11°C° 0 mm 1 mps 687 mmHg 53%
    01:00 +10°C° 0 mm 2 mps 687 mmHg 52%
    02:00 +10°C° 0 mm 2 mps 687 mmHg 50%
    03:00 +9°C° 0 mm 2 mps 686 mmHg 49%
    04:00 +9°C° 0 mm 3 mps 686 mmHg 48%
    05:00 +9°C° 0 mm 3 mps 686 mmHg 49%
    06:00 +8°C° 0 mm 4 mps 685 mmHg 49%
    07:00 +7°C° 0 mm 4 mps 685 mmHg 50%
    08:00 +10°C° 0 mm 5 mps 686 mmHg 44%
    09:00 +13°C° 0 mm 6 mps 686 mmHg 39%
    10:00 +15°C° 0 mm 7 mps 687 mmHg 34%
    11:00 +16°C° 0 mm 8 mps 687 mmHg 32%
    12:00 +18°C° 0 mm 8 mps 687 mmHg 29%
    13:00 +19°C° 0 mm 9 mps 687 mmHg 27%
    14:00 +20°C° 0 mm 8 mps 686 mmHg 27%
    15:00 +20°C° 0 mm 8 mps 686 mmHg 26%
    16:00 +20°C° 0 mm 7 mps 685 mmHg 26%
    17:00 +17°C° 0 mm 6 mps 685 mmHg 31%
    18:00 +16°C° 0 mm 5 mps 685 mmHg 35%
    19:00 +14°C° 0 mm 3 mps 685 mmHg 39%
    20:00 +14°C° 0 mm 3 mps 685 mmHg 40%
    21:00 +13°C° 0 mm 3 mps 685 mmHg 40%
    22:00 +14°C° 0 mm 2 mps 685 mmHg 41%
    23:00 +13°C° 0 mm 2 mps 685 mmHg 40%

    1 March, Sunday

    Time Temperature Precipitation Wind Pressure Humidity
    00:00 +13°C° 0 mm 2 mps 685 mmHg 39%
    01:00 +13°C° 0 mm 2 mps 685 mmHg 39%
    02:00 +12°C° 0 mm 2 mps 685 mmHg 38%
    03:00 +11°C° 0 mm 3 mps 684 mmHg 38%
    04:00 +11°C° 0 mm 3 mps 684 mmHg 38%
    05:00 +11°C° 0 mm 3 mps 684 mmHg 39%
    06:00 +10°C° 0 mm 3 mps 684 mmHg 40%
    07:00 +10°C° 0 mm 3 mps 684 mmHg 41%
    08:00 +13°C° 0 mm 3 mps 684 mmHg 36%
    09:00 +16°C° 0 mm 3 mps 685 mmHg 31%
    10:00 +19°C° 0 mm 4 mps 686 mmHg 26%
    11:00 +20°C° 0 mm 6 mps 686 mmHg 23%
    12:00 +21°C° 0 mm 7 mps 686 mmHg 21%
    13:00 +23°C° 0 mm 9 mps 686 mmHg 19%
    14:00 +22°C° 0 mm 9 mps 685 mmHg 19%
    15:00 +22°C° 0 mm 9 mps 684 mmHg 19%
    16:00 +22°C° 0 mm 9 mps 684 mmHg 19%
    17:00 +20°C° 0 mm 7 mps 684 mmHg 23%
    18:00 +17°C° 0 mm 6 mps 684 mmHg 27%
    19:00 +15°C° 0 mm 4 mps 684 mmHg 32%
    20:00 +16°C° 0 mm 3 mps 684 mmHg 38%
    21:00 +15°C° 0 mm 2 mps 685 mmHg 44%
    22:00 +14°C° 0 mm 2 mps 685 mmHg 50%
    23:00 +14°C° 0 mm 1 mps 685 mmHg 57%

    2 March, Monday

    Time Temperature Precipitation Wind Pressure Humidity
    00:00 +13°C° 0 mm 1 mps 684 mmHg 64%
    01:00 +12°C° 0 mm 1 mps 684 mmHg 71%
    02:00 +11°C° 0 mm 1 mps 684 mmHg 75%
    03:00 +11°C° 0 mm 1 mps 683 mmHg 78%
    04:00 +10°C° 0 mm 1 mps 683 mmHg 82%
    05:00 +10°C° 0 mm 1 mps 683 mmHg 82%
    06:00 +10°C° 0 mm 1 mps 683 mmHg 81%
    07:00 +10°C° 0 mm 1 mps 683 mmHg 81%
    08:00 +12°C° 0 mm 2 mps 683 mmHg 71%
    09:00 +13°C° 0 mm 3 mps 684 mmHg 60%
    10:00 +14°C° 0 mm 5 mps 684 mmHg 50%
    11:00 +16°C° 0 mm 7 mps 684 mmHg 44%
    12:00 +17°C° 0 mm 9 mps 684 mmHg 37%
    13:00 +18°C° 0 mm 10 mps 684 mmHg 31%
    14:00 +18°C° 0 mm 10 mps 683 mmHg 34%
    15:00 +17°C° 0 mm 10 mps 682 mmHg 37%
    16:00 +17°C° 0 mm 10 mps 682 mmHg 40%
    17:00 +16°C° 0.1 mm 10 mps 682 mmHg 47%
    18:00 +15°C° 0.1 mm 9 mps 682 mmHg 55%
    19:00 +12°C° 0.1 mm 8 mps 682 mmHg 63%
    20:00 +12°C° 0.3 mm 7 mps 682 mmHg 66%
    21:00 +13°C° 0.3 mm 6 mps 682 mmHg 70%
    22:00 +12°C° 0.3 mm 5 mps 682 mmHg 73%
    23:00 +10°C° 0 mm 5 mps 682 mmHg 74%

    3 March, Tuesday

    Time Temperature Precipitation Wind Pressure Humidity
    00:00 +10°C° 0 mm 5 mps 682 mmHg 75%
    01:00 +9°C° 0 mm 5 mps 682 mmHg 77%
    02:00 +10°C° 0 mm 4 mps 682 mmHg 78%
    03:00 +8°C° 0 mm 4 mps 681 mmHg 80%
    04:00 +9°C° 0 mm 3 mps 681 mmHg 81%
    05:00 +9°C° 0 mm 3 mps 681 mmHg 80%
    06:00 +8°C° 0 mm 4 mps 681 mmHg 79%
    07:00 +8°C° 0 mm 4 mps 681 mmHg 78%
    08:00 +9°C° 0 mm 6 mps 682 mmHg 72%
    09:00 +11°C° 0 mm 8 mps 683 mmHg 66%
    10:00 +12°C° 0 mm 9 mps 683 mmHg 59%
    11:00 +13°C° 0 mm 9 mps 684 mmHg 55%
    12:00 +15°C° 0 mm 9 mps 684 mmHg 51%
    13:00 +16°C° 0 mm 8 mps 684 mmHg 47%
    14:00 +16°C° 0 mm 8 mps 684 mmHg 46%
    15:00 +16°C° 0 mm 9 mps 683 mmHg 46%
    16:00 +16°C° 0 mm 9 mps 683 mmHg 45%
    17:00 +15°C° 0 mm 8 mps 683 mmHg 49%
    18:00 +14°C° 0 mm 7 mps 683 mmHg 54%
    19:00 +13°C° 0 mm 6 mps 683 mmHg 58%
    20:00 +12°C° 0 mm 5 mps 683 mmHg 61%
    21:00 +12°C° 0 mm 4 mps 683 mmHg 65%
    22:00 +11°C° 0 mm 3 mps 684 mmHg 68%
    23:00 +11°C° 0 mm 3 mps 683 mmHg 69%
    Show more